Back to catalog

STARLINK-31755

AliveCommunicationsVLEO
NORAD 59607·PAYLOAD·🇺🇸 United States

Launched Apr 28, 2024 from Cape Canaveral Space Force Station

Loading…

Next Passes (next 24 hours)

TLE

FreshSource: CelesTrak SupGP

Epoch: Sep 14, 2026, 21:29 UTC

1 59607C 24080G   26257.89562500  .00068588  00000+0  24851-2 0  2571
2 59607  43.0045  53.2831 0002122 283.4867  90.6492 15.27532045    17

Track STARLINK-31755 in real time with AllMySat

Download on the App Store